EW8543 Weather Reports


Display with metric or nautical units.
time (UTC)temp
F
wind
direction
speed
MPH
gust
MPH
rain 1hr
in
rain 24hr
in
rain mn
in
humidity
%
barometer
mb
20260505022519 52 36 4.0 12.0 0.00 0.04 0.00 86 1012.3
20260505022025 52 9 3.0 9.0 0.00 0.04 0.00 86 1012.4
20260505021534 52 13 3.0 10.0 0.00 0.04 0.00 86 1012.4
20260505021019 52 355 4.0 10.0 0.00 0.04 0.00 86 1012.4
20260505020524 52 30 4.0 11.0 0.00 0.04 0.00 86 1012.5
20260505020036 52 9 4.0 11.0 0.00 0.04 0.00 86 1012.6
20260505015543 52 350 4.0 9.0 0.00 0.04 0.00 86 1012.7
20260505015023 52 18 3.0 12.0 0.00 0.04 0.00 86 1012.8
20260505014554 52 17 3.0 12.0 0.00 0.04 0.00 86 1012.8
20260505014033 52 5 3.0 9.0 0.00 0.04 0.00 86 1012.7
20260505013522 52 23 3.0 9.0 0.00 0.04 0.00 86 1012.6
20260505013055 52 355 4.0 9.0 0.00 0.04 0.00 86 1012.7
20260505012522 52 74 3.0 9.0 0.00 0.04 0.00 86 1012.7
20260505012017 53 355 3.0 8.0 0.00 0.04 0.00 86 1012.7
20260505011525 53 13 3.0 8.0 0.00 0.04 0.00 86 1012.8
20260505011028 53 17 3.0 8.0 0.00 0.04 0.00 86 1012.7
20260505010537 53 25 2.0 9.0 0.00 0.04 0.00 86 1012.8
20260505010030 53 343 4.0 9.0 0.00 0.04 0.00 87 1012.7
20260505005520 53 26 2.0 9.0 0.00 0.04 0.00 87 1012.8
20260505005027 53 59 4.0 8.0 0.00 0.04 0.00 87 1012.9
20260505004516 53 46 4.0 8.0 0.00 0.04 0.00 87 1012.9
20260505004023 53 346 3.0 14.0 0.00 0.04 0.00 87 1012.9
20260505003528 53 42 6.0 14.0 0.00 0.04 0.00 87 1013.0
20260505003031 53 360 4.0 8.0 0.00 0.04 0.00 87 1013.0
20260505002519 53 339 3.0 8.0 0.00 0.04 0.00 87 1013.0
20260505002042 53 46 2.0 11.0 0.00 0.04 0.00 87 1013.0
20260505001527 53 360 3.0 11.0 0.00 0.04 0.00 88 1013.0
20260505001033 53 349 5.0 10.0 0.00 0.04 0.00 88 1013.2
20260505000523 53 355 5.0 11.0 0.00 0.04 0.00 88 1013.2
20260505000019 53 11 3.0 12.0 0.00 0.04 0.00 88 1013.2
20260504235544 53 355 6.0 14.0 0.00 0.04 0.00 88 1013.2
20260504235027 53 26 6.0 14.0 0.00 0.04 0.00 88 1013.2
20260504234516 53 16 3.0 11.0 0.00 0.04 0.00 88 1013.3
20260504234023 53 360 5.0 14.0 0.00 0.04 0.00 87 1013.2
20260504233532 53 355 6.0 14.0 0.00 0.04 0.00 87 1013.2
20260504233033 53 5 5.0 12.0 0.00 0.04 0.00 87 1013.4
20260504232522 53 9 6.0 12.0 0.00 0.04 0.00 87 1013.5
20260504232055 53 342 4.0 12.0 0.00 0.04 0.00 87 1013.5
20260504231523 53 349 5.0 12.0 0.00 0.04 0.00 88 1013.5
20260504231032 53 348 5.0 12.0 0.00 0.04 0.00 88 1013.5
20260504230518 53 345 6.0 13.0 0.00 0.04 0.00 88 1013.5
20260504230020 53 346 5.0 14.0 0.00 0.04 0.00 88 1013.5
20260504225530 53 9 5.0 14.0 0.00 0.04 0.00 89 1013.6
20260504225018 53 355 6.0 13.0 0.00 0.04 0.00 89 1013.7
20260504224526 53 5 6.0 13.0 0.00 0.04 0.00 89 1013.6
20260504224050 53 346 6.0 14.0 0.00 0.04 0.00 90 1013.6
20260504223538 53 317 7.0 14.0 0.00 0.04 0.00 90 1013.7
20260504223027 53 5 8.0 13.0 0.00 0.04 0.00 89 1013.6
20260504222517 53 17 6.0 14.0 0.00 0.04 0.00 89 1013.7
20260504222020 53 21 8.0 14.0 0.00 0.04 0.00 89 1013.8
20260504221549 53 48 7.0 13.0 0.00 0.04 0.00 89 1013.9
20260504221017 53 13 8.0 13.0 0.00 0.04 0.00 89 1013.9
20260504220527 54 5 4.0 11.0 0.00 0.04 0.00 89 1013.8
20260504220024 54 11 7.0 12.0 0.00 0.04 0.00 89 1013.9
20260504215533 54 329 5.0 13.0 0.00 0.04 0.01 89 1013.9
20260504215021 54 360 5.0 13.0 0.00 0.04 0.01 89 1013.9
20260504214531 53 355 5.0 12.0 0.00 0.04 0.01 89 1014.0
20260504214020 53 323 8.0 13.0 0.00 0.04 0.01 90 1013.9
20260504213545 54 344 5.0 13.0 0.00 0.04 0.01 90 1013.9
20260504213031 54 59 5.0 11.0 0.00 0.04 0.01 91 1014.0
20260504212539 54 50 3.0 13.0 0.00 0.04 0.01 91 1014.1
20260504212027 54 355 5.0 13.0 0.00 0.04 0.01 91 1014.1
20260504211516 54 350 4.0 13.0 0.00 0.04 0.01 91 1014.1
20260504211042 54 320 5.0 13.0 0.00 0.04 0.01 91 1014.0
20260504210554 54 331 5.0 13.0 0.00 0.04 0.01 91 1014.0
20260504210038 54 19 4.0 13.0 0.00 0.04 0.01 91 1014.0
20260504205521 54 22 4.0 13.0 0.00 0.04 0.01 91 1014.0
20260504205031 54 31 5.0 11.0 0.00 0.04 0.01 91 1014.0
20260504204519 54 328 5.0 11.0 0.00 0.04 0.01 91 1014.0
20260504204029 54 5 3.0 12.0 0.00 0.04 0.01 91 1014.0
20260504203517 54 9 5.0 13.0 0.00 0.04 0.01 91 1014.0
20260504203021 54 360 4.0 13.0 0.00 0.04 0.01 91 1013.9
20260504202549 53 5 6.0 12.0 0.00 0.04 0.01 91 1013.9
20260504202018 53 11 5.0 11.0 0.00 0.04 0.01 91 1013.9
20260504201546 53 348 5.0 10.0 0.00 0.04 0.01 91 1014.0
20260504201030 53 17 4.0 10.0 0.00 0.04 0.01 91 1014.0
20260504200519 53 360 4.0 12.0 0.00 0.04 0.01 91 1013.9
20260504200020 53 5 6.0 13.0 0.00 0.04 0.01 91 1013.9
20260504195528 53 360 7.0 13.0 0.00 0.04 0.01 91 1013.8
20260504195017 53 324 6.0 12.0 0.00 0.04 0.01 91 1013.8
20260504194522 53 350 5.0 12.0 0.00 0.04 0.01 91 1013.7
20260504194030 53 360 5.0 12.0 0.00 0.04 0.01 91 1013.7
20260504193518 53 5 6.0 13.0 0.00 0.04 0.01 91 1013.7
20260504193026 54 328 6.0 14.0 0.00 0.04 0.01 90 1013.5
20260504192515 54 5 5.0 12.0 0.00 0.04 0.01 90 1013.5
20260504192020 54 360 6.0 14.0 0.00 0.04 0.01 90 1013.4
20260504191528 54 344 7.0 14.0 0.00 0.04 0.01 90 1013.4
20260504191017 54 18 5.0 12.0 0.00 0.04 0.01 90 1013.4
20260504190546 54 360 8.0 13.0 0.00 0.04 0.01 90 1013.3
20260504190039 54 355 7.0 14.0 0.00 0.04 0.01 90 1013.3
20260504185526 54 341 5.0 14.0 0.00 0.04 0.01 90 1013.4
20260504185035 55 323 5.0 13.0 0.00 0.04 0.01 89 1013.4
20260504184523 55 35 4.0 14.0 0.00 0.04 0.01 89 1013.3
20260504184032 55 328 7.0 14.0 0.00 0.04 0.01 89 1013.4
20260504183517 55 333 5.0 15.0 0.00 0.04 0.01 89 1013.4
20260504183046 55 360 8.0 15.0 0.00 0.04 0.01 89 1013.4
20260504182534 55 324 5.0 13.0 0.00 0.04 0.01 89 1013.3
20260504182022 55 334 7.0 14.0 0.00 0.04 0.01 88 1013.3
20260504181531 55 317 7.0 14.0 0.00 0.04 0.01 88 1013.3
20260504181016 56 337 8.0 13.0 0.00 0.04 0.01 87 1013.3
20260504180545 56 332 6.0 11.0 0.00 0.04 0.01 87 1013.3
20260504180026 57 345 5.0 9.0 0.00 0.04 0.01 86 1013.3
20260504175516 57 15 3.0 15.0 0.00 0.04 0.01 86 1013.3
20260504175040 56 340 7.0 15.0 0.00 0.04 0.01 86 1013.3
20260504174548 57 332 7.0 15.0 0.00 0.04 0.01 86 1013.3
20260504174015 57 10 7.0 15.0 0.00 0.04 0.01 85 1013.3
20260504173525 57 10 7.0 16.0 0.00 0.04 0.01 85 1013.3
20260504173029 57 55 6.0 16.0 0.00 0.04 0.01 85 1013.3
20260504172519 57 319 10.0 14.0 0.00 0.04 0.01 85 1013.4
20260504172048 57 23 3.0 18.0 0.00 0.04 0.01 86 1013.4
20260504171517 57 14 9.0 18.0 0.00 0.04 0.01 85 1013.4
20260504171026 57 11 8.0 16.0 0.00 0.04 0.01 85 1013.4
20260504170550 57 360 6.0 13.0 0.00 0.04 0.01 86 1013.4
20260504151033 57 360 8.0 14.0 0.00 0.04 0.01 90 1013.3
20260504150521 57 55 5.0 13.0 0.00 0.04 0.01 90 1013.3
20260504141045 57 360 6.0 13.0 0.00 0.04 0.01 90 1013.4
20260504140533 57 340 7.0 13.0 0.00 0.04 0.01 88 1013.5
20260504130533 60 323 5.0 11.0 0.00 0.04 0.01 85 1013.7
20260504110530 60 9 5.0 8.0 0.00 0.08 0.01 85 1013.7
20260504100531 60 355 4.0 8.0 0.00 0.12 0.01 86 1013.9
20260504081519 58 283 2.0 4.0 0.00 0.28 0.01 90 1013.4
20260504081047 58 303 2.0 4.0 0.00 0.28 0.01 90 1013.3
20260504080514 58 334 2.0 3.0 0.00 0.28 0.01 91 1013.3
20260504050543 56 196 0.0 1.0 0.00 0.28 0.00 97 1011.9
20260504050017 55 196 0.0 0.0 0.00 0.28 0.00 97 1011.8
20260504045519 55 196 0.0 0.0 0.00 0.28 0.00 97 1011.9
20260504045020 55 196 0.0 0.0 0.00 0.28 0.00 97 1011.8
20260504044520 55 196 0.0 0.0 0.00 0.28 0.00 97 1011.6
20260504044014 55 196 0.0 0.0 0.00 0.28 0.00 97 1011.6
20260504043513 55 196 0.0 0.0 0.00 0.28 0.00 97 1011.6
20260504043032 55 196 0.0 0.0 0.00 0.28 0.00 97 1011.4
20260504042513 55 196 0.0 0.0 0.00 0.28 0.00 97 1011.4
20260504042028 56 196 0.0 0.0 0.00 0.28 0.00 97 1011.4
20260504041530 55 196 0.0 0.0 0.00 0.28 0.00 97 1011.4
20260504041030 55 196 0.0 0.0 0.00 0.28 0.00 97 1011.3
20260504040528 55 196 0.0 1.0 0.00 0.28 0.00 97 1011.4
20260504040017 55 196 0.0 1.0 0.00 0.28 0.00 97 1011.4
20260504035516 55 196 0.0 0.0 0.00 0.28 0.00 97 1011.4
20260504035015 55 196 0.0 0.0 0.00 0.28 0.00 97 1011.4
20260504034534 55 196 0.0 0.0 0.00 0.28 0.00 97 1011.4
20260504034031 55 196 0.0 1.0 0.00 0.28 0.00 97 1011.4
20260504033532 55 196 0.0 1.0 0.00 0.28 0.00 97 1011.3
20260504033030 55 196 0.0 0.0 0.00 0.28 0.00 97 1011.4
20260504032528 55 196 0.0 0.0 0.00 0.28 0.00 97 1011.4
20260504032026 55 196 0.0 0.0 0.00 0.28 0.00 96 1011.5
20260504031527 55 196 0.0 0.0 0.00 0.28 0.00 96 1011.5
20260504031046 55 196 0.0 1.0 0.00 0.28 0.00 96 1011.6
20260504030523 55 196 0.0 1.0 0.00 0.28 0.00 96 1011.7
20260504030015 55 196 0.0 3.0 0.00 0.28 0.00 96 1011.6
20260504025517 56 196 1.0 3.0 0.00 0.43 0.00 96 1011.6
20260504025020 56 196 0.0 3.0 0.00 0.43 0.00 96 1011.6
20260504024542 56 196 1.0 3.0 0.00 0.43 0.00 96 1011.6
20260504024038 56 196 1.0 6.0 0.00 0.43 0.00 96 1011.6
20260504023518 57 236 3.0 6.0 0.00 0.43 0.00 96 1011.4
20260504023020 56 228 5.0 6.0 0.00 0.43 0.00 96 1011.5